Torna al catalogo

FENGYUN 1C DEB

AttivoSSO
NORAD 29989·DEBRIS·🇨🇳 China

Lanciato May 10, 1999 da Taiyuan Satellite Launch Center

Loading…

Prossimi Passaggi (prossime 24 ore)

TLE

AggiornatoSource: Space-Track

Epoca: Sep 14, 2026, 21:39 UTC

1 29989U 99025LP  26257.90258006  .00000179  00000-0  10401-3 0  9990
2 29989  98.6992 234.8286 0124192 124.6764 264.8633 14.16004332 15152

Traccia FENGYUN 1C DEB in tempo reale con AllMySat

Download on the App Store